GW0273 Weather Reports


time (UTC)temp
C
wind
direction
speed
KPH
gust
KPH
rain 1hr
cm
rain 24hr
cm
rain mn
cm
humidity
%
barometer
mb
20260508203039 13 360 9.7 25.7 0.00 0.25 0.00 58 1001.8
20260508201532 13 335 6.4 17.7 0.00 0.25 0.00 61 1001.9
20260508200033 13 21 9.7 22.5 0.00 0.25 0.00 59 1001.9
20260508194533 12 355 6.4 25.7 0.00 0.74 0.00 61 1001.8
20260508193031 12 331 8.0 22.5 0.00 0.74 0.00 58 1001.9
20260508191534 13 5 8.0 24.1 0.00 0.74 0.00 55 1001.8
20260508190038 12 355 6.4 16.1 0.00 0.74 0.00 58 1001.8
20260508184536 11 347 4.8 16.1 0.00 1.40 0.00 61 1002.1
20260508183032 12 333 4.8 19.3 0.00 1.40 0.00 59 1002.0
20260508181535 13 339 6.4 16.1 0.00 1.40 0.00 57 1001.7
20260508180032 13 360 4.8 24.1 0.00 1.40 0.00 60 1001.9
20260508174552 11 149 8.0 16.1 0.00 1.40 0.00 75 1002.0
20260508173032 10 141 9.7 16.1 0.00 1.40 0.00 77 1002.2
20260508171535 11 131 6.4 12.9 0.00 1.40 0.00 77 1002.0
20260508170035 10 0 3.2 8.0 0.00 1.40 0.00 78 1002.1
20260508164537 10 92 3.2 14.5 0.00 1.40 0.00 80 1002.2
20260508163055 10 113 8.0 12.9 0.00 1.40 0.00 77 1001.9
20260508161532 11 25 1.6 12.9 0.00 1.40 0.00 79 1002.1
20260508160034 10 103 8.0 14.5 0.00 1.40 0.00 79 1001.9
20260508154532 10 111 1.6 11.3 0.00 1.40 0.00 81 1002.2
20260508153033 10 103 4.8 14.5 0.00 1.40 0.00 84 1002.6
20260508151539 9 94 8.0 14.5 0.00 1.40 0.00 82 1002.6
20260508150032 10 112 6.4 12.9 0.00 1.40 0.00 81 1002.5
20260508144536 9 96 4.8 12.9 0.00 1.40 0.00 82 1002.7
20260508143032 8 105 8.0 12.9 0.00 1.40 0.00 83 1002.7
20260508141532 9 99 8.0 12.9 0.00 1.40 0.00 82 1002.9
20260508140032 8 55 3.2 12.9 0.00 1.40 0.00 86 1003.1
20260508134536 9 68 6.4 12.9 0.00 1.40 0.00 86 1003.2
20260508133034 9 91 1.6 9.7 0.00 1.40 0.00 87 1002.7
20260508131531 9 103 4.8 11.3 0.00 1.40 0.00 88 1002.9
20260508130049 8 0 0.0 12.9 0.00 1.40 0.00 89 1002.7
20260508124533 8 89 3.2 8.0 0.00 1.40 0.00 90 1002.6
20260508123036 8 84 3.2 11.3 0.00 1.40 0.00 91 1002.6
20260508121535 8 82 3.2 9.7 0.00 1.40 0.00 91 1002.8
20260508120032 8 39 0.0 8.0 0.00 1.40 0.00 92 1002.9
20260508114531 8 0 0.0 3.2 0.00 1.40 0.00 94 1002.8
20260508113035 7 215 1.6 4.8 0.00 1.40 0.00 96 1002.9
20260508111535 6 0 0.0 1.6 0.00 1.40 0.00 96 1003.4
20260508110046 6 0 0.0 0.0 0.00 1.40 0.00 97 1003.3
20260508104533 6 0 0.0 1.6 0.00 1.40 0.00 96 1003.2
20260508103037 6 0 0.0 0.0 0.00 1.40 0.00 97 1003.2
20260508101536 5 0 0.0 0.0 0.00 1.40 0.00 97 1002.9
20260508100030 5 0 0.0 0.0 0.00 1.40 0.00 97 1002.7
20260508094544 4 0 0.0 0.0 0.00 1.40 0.00 96 1002.4
20260508093050 4 0 0.0 0.0 0.00 1.40 0.00 96 1002.5
20260508091533 4 0 0.0 4.8 0.00 1.40 0.00 96 1002.5
20260508090053 4 0 0.0 1.6 0.00 1.40 0.00 96 1002.4
20260508084530 5 0 0.0 0.0 0.00 1.40 0.00 95 1002.0
20260508083032 5 0 0.0 0.0 0.00 1.40 0.00 95 1001.9
20260508081532 5 0 0.0 1.6 0.00 1.40 0.00 95 1001.7
20260508080038 5 0 0.0 0.0 0.00 1.40 0.00 95 1001.8
20260508074540 6 0 0.0 0.0 0.00 1.40 0.00 95 1002.2
20260508073032 6 0 0.0 1.6 0.00 1.40 0.00 95 1002.2
20260508071532 6 0 0.0 8.0 0.00 1.40 0.00 95 1002.2
20260508070031 6 0 0.0 8.0 0.00 1.40 0.00 95 1002.2
20260508064532 6 0 0.0 1.6 0.00 1.40 0.00 95 1002.1
20260508063035 7 0 0.0 3.2 0.00 1.40 0.00 94 1002.1
20260508061532 7 0 0.0 0.0 0.00 1.40 0.00 95 1001.9
20260508060033 7 0 0.0 3.2 0.00 1.40 0.00 95 1002.2
20260508054531 7 0 0.0 0.0 0.00 1.40 0.00 95 1002.2
20260508053032 7 0 0.0 1.6 0.00 1.40 0.00 95 1002.3
20260508051530 7 0 0.0 1.6 0.00 1.40 0.00 94 1001.9
20260508050039 6 0 0.0 0.0 0.00 1.40 0.00 94 1002.1
20260508044536 6 0 0.0 3.2 0.00 1.40 0.00 94 1001.9
20260508043031 6 0 0.0 4.8 0.00 1.40 0.00 93 1002.2
20260508041539 7 0 0.0 12.9 0.00 1.40 0.00 92 1002.2
20260508040032 7 0 0.0 8.0 0.00 1.40 0.00 92 1002.3
20260508034534 8 122 1.6 12.9 0.00 1.40 0.00 91 1002.2
20260508033037 9 81 1.6 4.8 0.00 1.40 0.00 90 1002.4
20260508031538 10 0 0.0 3.2 0.00 1.40 0.00 89 1002.2
20260508030039 10 192 4.8 19.3 0.00 1.40 0.00 87 1002.0
20260508024530 10 0 1.6 12.9 0.00 1.40 1.40 86 1002.0
20260508023041 10 277 6.4 29.0 0.00 1.40 1.40 85 1001.9
20260508021535 10 292 14.5 25.7 0.00 1.40 1.40 87 1002.1
20260508020034 10 201 12.9 29.0 0.00 1.40 1.40 89 1002.1
20260508014534 10 215 3.2 16.1 0.00 1.40 1.40 90 1002.3
20260508013032 10 0 0.0 9.7 0.00 1.40 1.40 90 1002.1
20260508011534 10 280 4.8 22.5 0.00 1.40 1.40 90 1002.1
20260508010040 10 273 4.8 12.9 0.00 1.40 1.40 91 1002.3
20260508004534 10 0 8.0 20.9 0.00 1.40 1.40 93 1002.3
20260508003032 11 196 11.3 25.7 0.00 1.40 1.40 93 1002.2
20260508001535 10 261 1.6 12.9 0.00 1.40 1.40 96 1002.2
20260508000033 10 0 4.8 12.9 0.00 1.40 1.40 96 1001.9
20260507234537 10 0 0.0 0.0 0.00 1.40 1.40 96 1001.6
20260507233034 10 0 0.0 0.0 0.00 1.40 1.40 96 1001.7
20260507231534 10 0 0.0 0.0 0.00 1.40 1.40 96 1001.5
20260507230035 10 0 0.0 6.4 0.00 1.40 1.40 94 1001.5
20260507224550 11 0 0.0 0.0 0.00 1.40 1.40 94 1001.4
20260507223034 12 0 0.0 1.6 0.00 1.40 1.40 95 1001.6
20260507221538 12 0 0.0 4.8 0.00 1.40 1.40 95 1001.5
20260507220038 12 0 0.0 6.4 0.00 1.40 1.40 96 1001.5
20260507214538 12 0 0.0 3.2 0.00 1.40 1.40 96 1001.5
20260507213036 11 0 0.0 0.0 0.03 1.40 1.40 96 1001.5
20260507211535 11 0 0.0 3.2 0.08 1.40 1.40 96 1001.8
20260507210058 11 168 4.8 12.9 0.25 1.40 1.40 95 1001.8
20260507204536 11 338 1.6 6.4 0.38 1.40 1.40 96 1001.5